Regional Weather Roundup
Issued by NWS

Home | Current Version | Previous Version | Graphics & Text | Print | Product List | Glossary On
Versions: 1 2 3 4 5 6 7 8 9 10 11 12 13 14 15 16 17 18 19 20 21 22 23 24 25 26 27 28 29 30 31 32 33 34 35 36 37 38 39 40 41 42 43 44 45 46 47 48 49 50
000
ASUS43 KLMK 031502
RWRKY
KENTUCKY REGIONAL WEATHER ROUNDUP
NATIONAL WEATHER SERVICE LOUISVILLE KY
1100 AM EDT SUN MAY 03 2015

NOTE "FAIR" INDICATES FEW OR NO CLOUDS BELOW 12,000 FEET
WITH NO SIGNIFICANT WEATHER AND/OR OBSTRUCTIONS TO VISIBILITY.

KYZ001>023-026-027-061>063-070>075-031600-
WESTERN AND SOUTH CENTRAL KENTUCKY

CITY           SKY/WX    TMP DP  RH WIND       PRES   REMARKS
PADUCAH        SUNNY     73  48  41 SW7       30.10R
HENDERSON      MOSUNNY   73  48  40 S9        30.10S
OWENSBORO      PTSUNNY   65  53  65 S6        30.12S
HOPKINSVILLE   MOSUNNY   73  53  49 S7        30.13R
BOWLING GREEN  MOSUNNY   70  51  51 S5        30.14S
GLASGOW        NOT AVBL
$$

KYZ024-025-028>034-038-045-046-053-031600-
NORTH CENTRAL KENTUCKY

CITY           SKY/WX    TMP DP  RH WIND       PRES   REMARKS
LOUISVILLE/SDF PTSUNNY   70  49  47 SE9       30.13S
LOUISVILLE/LOU MOSUNNY   70  48  45 SE8       30.13F
FORT KNOX      PTSUNNY   71  49  45 S10       30.11F
$$

KYZ035>037-039>044-047>052-055>060-089>105-031600-
NORTHEAST KENTUCKY

CITY           SKY/WX    TMP DP  RH WIND       PRES   REMARKS
LEXINGTON      MOSUNNY   69  49  48 S7        30.16S
COVINGTON      MOSUNNY   71  49  45 SW8       30.13F
FRANKFORT      MOSUNNY   68  50  52 SE6       30.14S
$$

KYZ054-064>069-076>088-106>120-031600-
SOUTHEAST KENTUCKY

CITY           SKY/WX    TMP DP  RH WIND       PRES   REMARKS
JACKSON        MOSUNNY   67  43  41 VRB5      30.18S
LONDON         SUNNY     68  42  38 S5        30.18R
SOMERSET       NOT AVBL
MIDDLESBORO    SUNNY     64  47  54 CALM      30.20S
MONTICELLO     MOSUNNY   70  50  49 CALM      30.19S
$$




USA.gov is the U.S. government's official web portal to all federal, state and local government web resources and services.